Content
SEND FEEDBACK

Daily
Averages
Monthly
Summary
United States of America

WASECA, MINNESOTA


Home > North America > United States > Minnesota
Elevation: 1146 feet     Latitude: 44 04N     Longitude: 093 31W

WEATHER
 
SELECT A DAY
Number of Records: 312,086;   Date Range: 4/8/02 - 10/29/14
 
SHARE

PRINT THIS DATA

[ ← Previous Day ]
WEATHER ALMANAC - JANUARY 3, 2013
[ Next Day → ]
[ °C ]   °F
Weather ElementAverageHighLow
Temperature13.2 °F17.6 °F (12:34 am)8.6 °F (9:14 am)
Dewpoint6.8 °F10.4 °F (12:34 am)1.4 °F (9:14 am)
Humidity75.8 %86 % (9:54 pm)63 % (2:54 pm)
Barometer30.22 in30.29 in (10:34 am)30.12 in (12:34 am)
Wind Speed13.3 mph20.7 mph (5:14 am)
Wind Gust24.2 mph (5:34 am)
Weather ElementAverage
Visibility7.8 mi
Wind DirectionWSW (261 °)

Weather ElementTotal
Precipitation---
Heating Degree Days51.9 (Base 65)
Averaged from 69 records on January 3, 2013
WEATHER CONDITIONS BREAKOUT
WIND DIRECTION BREAKOUT
WEATHER BY HOUR - JANUARY 3, 2013
[ °C ]   °F
Local TimeTemperatureDewpointHumidityBarometerVisibilityWind DirectionWind SpeedGust SpeedPrecipitationEventsConditions
12:34 AM17.6 °F10.4 °F73 %30.12 in10.0 miWNW (290°)17.3 mph23.0 mphScattered Clouds
12:54 AM14.0 °F8.6 °F79 %30.12 in10.0 miWNW (290°)16.1 mphClear
1:13 AM14.0 °F8.6 °F79 %30.13 in5.0 miWNW (290°)17.3 mphSnowLight Snow
1:34 AM14.0 °F8.6 °F79 %30.13 in7.0 miWNW (290°)17.3 mphSnowLight Snow
1:54 AM14.0 °F8.6 °F79 %30.14 in7.0 miWNW (290°)16.1 mphMostly Cloudy
2:14 AM14.0 °F8.6 °F79 %30.14 in5.0 miWNW (290°)18.4 mphSnowLight Snow
2:34 AM14.0 °F8.6 °F79 %30.15 in5.0 miWest (280°)17.3 mph20.7 mphSnowLight Snow
2:54 AM14.0 °F8.6 °F79 %30.15 in5.0 miWNW (290°)17.3 mphSnowLight Snow
3:14 AM14.0 °F8.6 °F79 %30.16 in5.0 miWNW (290°)19.6 mphSnowLight Snow
3:34 AM14.0 °F8.6 °F79 %30.16 in5.0 miWNW (290°)16.1 mphHaze
3:54 AM14.0 °F8.6 °F79 %30.16 in4.0 miWNW (290°)19.6 mphHaze
4:14 AM14.0 °F8.6 °F79 %30.17 in4.0 miWNW (290°)16.1 mphHaze
4:34 AM14.0 °F8.6 °F79 %30.18 in7.0 miWNW (290°)18.4 mphSnowLight Snow
4:54 AM14.0 °F8.6 °F79 %30.18 in5.0 miWNW (290°)18.4 mph21.9 mphHaze
5:14 AM14.0 °F8.6 °F79 %30.18 in7.0 miWNW (290°)20.7 mphOvercast
5:34 AM14.0 °F8.6 °F79 %30.19 in7.0 miWNW (290°)15.0 mph24.2 mphOvercast
5:54 AM14.0 °F8.6 °F79 %30.19 in5.0 miWNW (290°)17.3 mphHaze
6:14 AM14.0 °F8.6 °F79 %30.21 in7.0 miWNW (290°)15.0 mphOvercast
6:34 AM14.0 °F6.8 °F73 %30.21 in7.0 miWNW (290°)19.6 mph24.2 mphOvercast
6:54 AM12.2 °F5.0 °F73 %30.22 in7.0 miWNW (290°)13.8 mphOvercast
7:14 AM12.2 °F5.0 °F73 %30.23 in5.0 miWest (280°)16.1 mphHaze
7:34 AM12.2 °F5.0 °F73 %30.23 in10.0 miWNW (290°)12.7 mphOvercast
7:54 AM12.2 °F5.0 °F73 %30.24 in7.0 miWest (280°)11.5 mphOvercast
8:14 AM12.2 °F5.0 °F73 %30.24 in4.0 miWest (280°)13.8 mphHaze
8:34 AM10.4 °F3.2 °F73 %30.25 in7.0 miWNW (290°)11.5 mphOvercast
8:54 AM10.4 °F3.2 °F73 %30.25 in7.0 miWest (280°)13.8 mphOvercast
9:14 AM8.6 °F1.4 °F73 %30.26 in10.0 miWNW (290°)16.1 mphMostly Cloudy
9:34 AM8.6 °F1.4 °F73 %30.27 in10.0 miWNW (290°)12.7 mphClear
9:54 AM8.6 °F1.4 °F73 %30.28 in7.0 miWNW (290°)10.4 mphClear
10:34 AM8.6 °F1.4 °F73 %30.29 in7.0 miWNW (290°)15.0 mphClear
10:54 AM10.4 °F1.4 °F67 %30.28 in4.0 miWNW (290°)11.5 mphHaze
11:14 AM10.4 °F1.4 °F67 %30.28 in4.0 miWest (280°)12.7 mphHaze
11:34 AM10.4 °F3.2 °F73 %30.28 in4.0 miWNW (290°)12.7 mphSnowLight Snow
11:54 AM10.4 °F3.2 °F73 %30.28 in4.0 miWest (280°)12.7 mphHaze
12:14 PM12.2 °F5.0 °F73 %30.26 in1.8 miWest (280°)10.4 mphSnowLight Snow
12:34 PM12.2 °F5.0 °F73 %30.26 in2.0 miWest (260°)10.4 mphSnowLight Snow
12:54 PM12.2 °F5.0 °F73 %30.26 in4.0 miWest (270°)12.7 mphSnowLight Snow
1:14 PM14.0 °F6.8 °F73 %30.26 in10.0 miWest (260°)13.8 mph17.3 mphClear
1:34 PM14.0 °F5.0 °F67 %30.26 in10.0 miWest (260°)11.5 mphClear
1:54 PM14.0 °F5.0 °F67 %30.26 in10.0 miWest (270°)15.0 mphClear
2:14 PM14.0 °F5.0 °F67 %30.26 in10.0 miWest (280°)13.8 mphClear
2:34 PM15.8 °F6.8 °F68 %30.26 in10.0 miWest (280°)13.8 mph17.3 mphClear
2:54 PM17.6 °F6.8 °F63 %30.26 in10.0 miWest (280°)12.7 mphClear
3:14 PM17.6 °F8.6 °F68 %30.27 in10.0 miWNW (290°)13.8 mphClear
3:54 PM17.6 °F8.6 °F68 %30.27 in10.0 miWest (270°)10.4 mphClear
4:14 PM14.0 °F6.8 °F73 %30.26 in10.0 miWSW (250°)6.9 mphClear
4:34 PM14.0 °F6.8 °F73 %30.26 in10.0 miWSW (250°)8.1 mphClear
4:54 PM12.2 °F5.0 °F73 %30.26 in10.0 miWSW (250°)9.2 mphClear
5:14 PM12.2 °F5.0 °F73 %30.27 in10.0 miWSW (250°)9.2 mphScattered Clouds
5:34 PM14.0 °F8.6 °F79 %30.26 in7.0 miSW (220°)8.1 mphSnowLight Snow
5:54 PM14.0 °F6.8 °F73 %30.26 in10.0 miSSW (210°)6.9 mphScattered Clouds
6:14 PM12.2 °F6.8 °F79 %30.26 in10.0 miSW (220°)8.1 mphClear
6:34 PM12.2 °F5.0 °F73 %30.25 in10.0 miSSW (210°)8.1 mphClear
6:54 PM12.2 °F6.8 °F79 %30.25 in10.0 miSSW (210°)9.2 mphClear
7:14 PM12.2 °F6.8 °F79 %30.24 in10.0 miSSW (210°)9.2 mphClear
7:34 PM12.2 °F6.8 °F79 %30.24 in10.0 miSSW (210°)9.2 mphClear
7:54 PM12.2 °F6.8 °F79 %30.23 in10.0 miSSW (200°)11.5 mphClear
8:14 PM14.0 °F8.6 °F79 %30.22 in10.0 miSSW (200°)12.7 mphClear
8:34 PM14.0 °F8.6 °F79 %30.22 in10.0 miSSW (210°)12.7 mphClear
8:54 PM14.0 °F8.6 °F79 %30.20 in10.0 miSSW (210°)12.7 mphClear
9:14 PM14.0 °F8.6 °F79 %30.20 in10.0 miSSW (210°)13.8 mphClear
9:34 PM14.0 °F8.6 °F79 %30.18 in10.0 miSSW (210°)13.8 mphClear
9:54 PM14.0 °F10.4 °F86 %30.18 in10.0 miSSW (210°)13.8 mphClear
10:14 PM14.0 °F10.4 °F86 %30.18 in10.0 miSSW (210°)12.7 mphClear
10:34 PM14.0 °F10.4 °F86 %30.17 in10.0 miSSW (210°)11.5 mphClear
10:54 PM14.0 °F10.4 °F86 %30.17 in10.0 miSSW (210°)10.4 mphClear
11:13 PM14.0 °F10.4 °F86 %30.17 in10.0 miSSW (210°)10.4 mphClear
11:34 PM15.8 °F10.4 °F79 %30.16 in10.0 miSW (220°)10.4 mphClear
11:54 PM15.8 °F10.4 °F79 %30.16 in10.0 miSW (220°)10.4 mphClear
Hourly data recorded from KACQ, located miles away from Waseca, Minnesota







STORIES FROM OUR PARTNERS